Regional Weather Roundup
Issued by NWS

Home | Current Version | Previous Version | Text Only | Print | Product List | Glossary On
Versions: 1 2 3 4 5 6 7 8 9 10 11 12 13 14 15 16 17 18 19 20 21 22 23 24 25 26 27 28 29 30 31 32 33 34 35 36 37 38 39 40 41 42 43 44 45 46 47 48 49 50
603
ASUS43 KLSX 261957
RWRMO

WEATHER SUMMARY FOR MISSOURI
NATIONAL WEATHER SERVICE SPRINGFIELD MO
300 PM CDT TUE JUL 26 2016

NOTE: "FAIR" INDICATES FEW OR NO CLOUDS BELOW 12,000 FEET WITH NO
       SIGNIFICANT WEATHER AND/OR OBSTRUCTIONS TO VISIBILITY.
       CURRENT SKY AND/OR WEATHER CONDITIONS ARE NOT AVAILABLE FOR
       CHILLICOTHE AND FARMINGTON.

MOZ001>031-035>038-043-044-053-054-262100-
...NORTHERN AND WESTERN MISSOURI...

CITY           SKY/WX    TMP DP  RH WIND       PRES   REMARKS
KANSAS CTY INT MOSUNNY   87  66  49 NE5       30.03F
LEE`S SUMMIT   MOSUNNY   85  68  56 E8        30.03F
ST JOSEPH      SUNNY     86  67  52 CALM      30.02F

$$
MOZ066>068-077>081-088>096-101>105-262100-
...SOUTHWEST MISSOURI...

CITY           SKY/WX    TMP DP  RH WIND       PRES   REMARKS
SPRINGFIELD    PTSUNNY   87  73  62 NE14      29.99S HX  94
JOPLIN         PTSUNNY   87  76  69 N9        29.97F HX  97
BRANSON        RAIN      77  72  83 SE17G29   30.02S

$$
MOZ032>034-039>042-045>050-055>058-069>072-262100-
...CENTRAL MISSOURI...

CITY           SKY/WX    TMP DP  RH WIND       PRES   REMARKS
COLUMBIA       NOT AVBL
JEFFERSON CITY PTSUNNY   86  70  58 VRB3      29.98F HX  90
ROLLA          PTSUNNY   88  74  63 N6        29.99F HX  96
SEDALIA        SUNNY     88  71  57 VRB5      30.02F HX  94

$$
MOZ051-052-059>065-262100-
...EAST CENTRAL MISSOURI...

CITY           SKY/WX    TMP DP  RH WIND       PRES   REMARKS
ST LOUIS INTL  MOSUNNY   90  72  55 N7        29.99F HX  97

$$
MOZ072>076-082>087-097>100-106>115-262100-
...SOUTH CENTRAL AND SOUTHEAST MISSOURI...

CITY           SKY/WX    TMP DP  RH WIND       PRES   REMARKS
CAPE GIRARDEAU CLOUDY    81  74  79 E10       29.98R THUNDER
FARMINGTON     CLOUDY    77  73  88 E3        30.02S
POPLAR BLUFF   MOSUNNY   89  75  63 W5        29.95S HX  99
WEST PLAINS    CLOUDY    77  72  84 S3        30.04S

$$



USA.gov is the U.S. government's official web portal to all federal, state and local government web resources and services.